TimePDT,TemperatureF,Dew PointF,Humidity,Sea Level PressureIn,VisibilityMPH,Wind Direction,Wind SpeedMPH,Gust SpeedMPH,PrecipitationIn,Events,Conditions,WindDirDegrees,DateUTC
5:00 AM,35,35,97,30.02,,SSE,10.4,,,,,150,2012-10-30 12:00:00
6:00 AM,39.2,39.2,100,29.90,1.0,Calm,Calm,-,N/A,,Overcast,0,2012-10-30 13:00:00
7:00 AM,37.4,37.4,100,29.91,1.0,Calm,Calm,-,N/A,,Overcast,0,2012-10-30 14:00:00
7:37 AM,-9999,-9999,N/A,-9999,0.5,Calm,Calm,-,N/A,Fog,Fog,0,2012-10-30 14:37:00
8:00 AM,37.4,37.4,100,29.92,0.5,Calm,Calm,-,N/A,Fog,Fog,0,2012-10-30 15:00:00
9:00 AM,37.4,37.4,100,29.92,0.5,Calm,Calm,-,N/A,Fog,Fog,0,2012-10-30 16:00:00
9:50 AM,-9999,-9999,N/A,-9999,1.0,Calm,Calm,-,N/A,,Overcast,0,2012-10-30 16:50:00
10:00 AM,39.2,37.4,93,29.93,1.0,Calm,Calm,-,N/A,,Overcast,0,2012-10-30 17:00:00
10:18 AM,-9999,-9999,N/A,-9999,1.8,Calm,Calm,-,N/A,,Overcast,0,2012-10-30 17:18:00
10:43 AM,-9999,-9999,N/A,-9999,5.0,Calm,Calm,-,N/A,,Overcast,0,2012-10-30 17:43:00
11:00 AM,38,38,98,29.99,,South,9.2,,,,,170,2012-10-30 18:00:00
11:00 AM,39.2,39.2,100,29.93,5.0,Calm,Calm,-,N/A,,Overcast,0,2012-10-30 18:00:00
12:00 PM,41.0,39.2,93,29.93,5.0,Calm,Calm,-,N/A,,Overcast,0,2012-10-30 19:00:00
1:00 PM,42.8,41.0,93,29.92,15.0,Calm,Calm,-,N/A,,Overcast,0,2012-10-30 20:00:00
2:00 PM,44.6,32.0,61,29.92,15.0,Calm,Calm,-,N/A,,Overcast,0,2012-10-30 21:00:00
2:52 PM,-9999,-9999,N/A,-9999,15.0,Calm,Calm,-,N/A,Rain,Light Rain,0,2012-10-30 21:52:00
3:00 PM,44.6,41.0,87,29.92,15.0,Calm,Calm,-,N/A,Rain,Light Rain,0,2012-10-30 22:00:00
4:00 PM,44.6,41.0,87,29.92,15.0,Calm,Calm,-,N/A,Rain,Light Rain,0,2012-10-30 23:00:00
5:00 PM,40,39,93,29.97,,SSW,6.9,,,,,200,2012-10-31 00:00:00
5:00 PM,42.8,42.8,100,29.92,10.0,Calm,Calm,-,N/A,Rain,Light Rain,0,2012-10-31 00:00:00
5:40 PM,-9999,-9999,N/A,-9999,2.5,Calm,Calm,-,N/A,Rain,Light Rain,0,2012-10-31 00:40:00
6:00 PM,44.6,42.8,93,29.92,2.5,Calm,Calm,-,N/A,Rain,Light Rain,0,2012-10-31 01:00:00
11:00 PM,37,37,100,29.97,,SW,2.3,,,,,230,2012-10-31 06:00:00